Tracking 19570 objects as of 21-Feb-2019
HD Live streaming from Space Station
objects crossing your sky now

SYNCOM 3

Track SYNCOM 3 now!
SYNCOM 3 is classified as:


NORAD ID: 858
Int'l Code: 1964-047A
Perigee: 35,787.0 km
Apogee: 35,819.2 km
Inclination: 0.7 °
Period: 1,436.6 minutes
Semi major axis: 42174 km
RCS: 6.3096 m2 (large)
Launch date: August 19, 1964
Source: United States (US)
Launch site: AIR FORCE EASTERN TEST RANGE (AFETR)
aabbcc
Your satellite tracking list
Your tracking list is empty




NASA's NSSDC Master Catalog

Two Line Element Set (TLE):
1   858U 64047A   19051.53779730 -.00000254 +00000-0 +00000-0 0  9991
2   858 000.7460 053.7622 0003822 226.5296 210.6721 01.00238429026660
Source of the keplerian elements: AFSPC